Year,Month,Day,Hour,Minute,Value (Times are PST for temperature in C)
2015,06,27,00,00,21.60
2015,06,27,00,01,21.60
2015,06,27,00,02,21.50
2015,06,27,00,03,21.50
2015,06,27,00,04,21.50
2015,06,27,00,05,21.40
2015,06,27,00,06,21.40
2015,06,27,00,07,21.40
2015,06,27,00,08,21.40
2015,06,27,00,09,21.40
2015,06,27,00,10,21.30
2015,06,27,00,11,21.30
2015,06,27,00,12,21.30
2015,06,27,00,13,21.30
2015,06,27,00,14,21.20
2015,06,27,00,15,21.20
2015,06,27,00,16,21.20
2015,06,27,00,17,21.20
2015,06,27,00,18,21.10
2015,06,27,00,19,21.10
2015,06,27,00,20,21.10
2015,06,27,00,21,21.10
2015,06,27,00,22,21.00
2015,06,27,00,23,21.00
2015,06,27,00,24,21.00
2015,06,27,00,25,20.90
2015,06,27,00,26,20.90
2015,06,27,00,27,20.90
2015,06,27,00,28,20.80
2015,06,27,00,29,20.80
2015,06,27,00,30,20.80
2015,06,27,00,31,20.70
2015,06,27,00,32,20.70
2015,06,27,00,33,20.70
2015,06,27,00,34,20.60
2015,06,27,00,35,20.60
2015,06,27,00,36,20.60
2015,06,27,00,37,20.60
2015,06,27,00,38,20.50
2015,06,27,00,39,20.50
2015,06,27,00,40,20.50
2015,06,27,00,41,20.40
2015,06,27,00,42,20.40
2015,06,27,00,43,20.40
2015,06,27,00,44,20.40
2015,06,27,00,45,20.40
2015,06,27,00,46,20.30
2015,06,27,00,47,20.30
2015,06,27,00,48,20.30
2015,06,27,00,49,20.30
2015,06,27,00,50,20.20
2015,06,27,00,51,20.20
2015,06,27,00,52,20.20
2015,06,27,00,53,20.20
2015,06,27,00,54,20.20
2015,06,27,00,55,20.10
2015,06,27,00,56,20.10
2015,06,27,00,57,20.10
2015,06,27,00,58,20.10
2015,06,27,00,59,20.00
2015,06,27,01,00,20.00
2015,06,27,01,01,19.90
2015,06,27,01,02,19.90
2015,06,27,01,03,19.90
2015,06,27,01,04,19.90
2015,06,27,01,05,19.90
2015,06,27,01,06,19.90
2015,06,27,01,07,19.90
2015,06,27,01,08,19.90
2015,06,27,01,09,19.90
2015,06,27,01,10,19.90
2015,06,27,01,11,20.00
2015,06,27,01,12,20.00
2015,06,27,01,13,20.10
2015,06,27,01,14,20.20
2015,06,27,01,15,20.20
2015,06,27,01,16,20.20
2015,06,27,01,17,20.30
2015,06,27,01,18,20.30
2015,06,27,01,19,20.30
2015,06,27,01,20,20.40
2015,06,27,01,21,20.40
2015,06,27,01,22,20.40
2015,06,27,01,23,20.30
2015,06,27,01,24,20.30
2015,06,27,01,25,20.30
2015,06,27,01,26,20.30
2015,06,27,01,27,20.20
2015,06,27,01,28,20.20
2015,06,27,01,29,20.20
2015,06,27,01,30,20.20
2015,06,27,01,31,20.20
2015,06,27,01,32,20.10
2015,06,27,01,33,20.10
2015,06,27,01,34,20.10
2015,06,27,01,35,20.10
2015,06,27,01,36,20.10
2015,06,27,01,37,20.00
2015,06,27,01,38,20.00
2015,06,27,01,39,20.00
2015,06,27,01,40,19.90
2015,06,27,01,41,19.90
2015,06,27,01,42,19.90
2015,06,27,01,43,19.80
2015,06,27,01,44,19.80
2015,06,27,01,45,19.80
2015,06,27,01,46,19.80
2015,06,27,01,47,19.70
2015,06,27,01,48,19.70
2015,06,27,01,49,19.70
2015,06,27,01,50,19.70
2015,06,27,01,51,19.60
2015,06,27,01,52,19.60
2015,06,27,01,53,19.60
2015,06,27,01,54,19.60
2015,06,27,01,55,19.60
2015,06,27,01,56,19.60
2015,06,27,01,57,19.60
2015,06,27,01,58,19.50
2015,06,27,01,59,19.50
2015,06,27,02,00,19.50
2015,06,27,02,01,19.50
2015,06,27,02,02,19.50
2015,06,27,02,03,19.50
2015,06,27,02,04,19.40
2015,06,27,02,05,19.40
2015,06,27,02,06,19.40
2015,06,27,02,07,19.40
2015,06,27,02,08,19.40
2015,06,27,02,09,19.40
2015,06,27,02,10,19.40
2015,06,27,02,11,19.40
2015,06,27,02,12,19.40
2015,06,27,02,13,19.40
2015,06,27,02,14,19.30
2015,06,27,02,15,19.30
2015,06,27,02,16,19.30
2015,06,27,02,17,19.30
2015,06,27,02,18,19.30
2015,06,27,02,19,19.30
2015,06,27,02,20,19.30
2015,06,27,02,21,19.30
2015,06,27,02,22,19.20
2015,06,27,02,23,19.20
2015,06,27,02,24,19.20
2015,06,27,02,25,19.20
2015,06,27,02,26,19.20
2015,06,27,02,27,19.20
2015,06,27,02,28,19.10
2015,06,27,02,29,19.10
2015,06,27,02,30,19.10
2015,06,27,02,31,19.10
2015,06,27,02,32,19.10
2015,06,27,02,33,19.00
2015,06,27,02,34,19.00
2015,06,27,02,35,18.90
2015,06,27,02,36,18.90
2015,06,27,02,37,18.90
2015,06,27,02,38,18.90
2015,06,27,02,39,18.90
2015,06,27,02,40,18.90
2015,06,27,02,41,18.90
2015,06,27,02,42,18.90
2015,06,27,02,43,18.90
2015,06,27,02,44,18.80
2015,06,27,02,45,18.80
2015,06,27,02,46,18.80
2015,06,27,02,47,18.80
2015,06,27,02,48,18.80
2015,06,27,02,49,18.80
2015,06,27,02,50,18.80
2015,06,27,02,51,18.80
2015,06,27,02,52,18.80
2015,06,27,02,53,18.70
2015,06,27,02,54,18.70
2015,06,27,02,55,18.70
2015,06,27,02,56,18.70
2015,06,27,02,57,18.70
2015,06,27,02,58,18.70
2015,06,27,02,59,18.70
2015,06,27,03,00,18.70
2015,06,27,03,01,18.70
2015,06,27,03,02,18.60
2015,06,27,03,03,18.60
2015,06,27,03,04,18.60
2015,06,27,03,05,18.60
2015,06,27,03,06,18.60
2015,06,27,03,07,18.60
2015,06,27,03,08,18.60
2015,06,27,03,09,18.60
2015,06,27,03,10,18.60
2015,06,27,03,11,18.60
2015,06,27,03,12,18.60
2015,06,27,03,13,18.60
2015,06,27,03,14,18.60
2015,06,27,03,15,18.60
2015,06,27,03,16,18.50
2015,06,27,03,17,18.50
2015,06,27,03,18,18.50
2015,06,27,03,19,18.50
2015,06,27,03,20,18.50
2015,06,27,03,21,18.50
2015,06,27,03,22,18.50
2015,06,27,03,23,18.50
2015,06,27,03,24,18.50
2015,06,27,03,25,18.50
2015,06,27,03,26,18.50
2015,06,27,03,27,18.50
2015,06,27,03,28,18.50
2015,06,27,03,29,18.50
2015,06,27,03,30,18.50
2015,06,27,03,31,18.40
2015,06,27,03,32,18.40
2015,06,27,03,33,18.40
2015,06,27,03,34,18.40
2015,06,27,03,35,18.40
2015,06,27,03,36,18.40
2015,06,27,03,37,18.40
2015,06,27,03,38,18.40
2015,06,27,03,39,18.30
2015,06,27,03,40,18.30
2015,06,27,03,41,18.30
2015,06,27,03,42,18.30
2015,06,27,03,43,18.30
2015,06,27,03,44,18.30
2015,06,27,03,45,18.30
2015,06,27,03,46,18.30
2015,06,27,03,47,18.30
2015,06,27,03,48,18.20
2015,06,27,03,49,18.20
2015,06,27,03,50,18.20
2015,06,27,03,51,18.20
2015,06,27,03,52,18.20
2015,06,27,03,53,18.20
2015,06,27,03,54,18.20
2015,06,27,03,55,18.20
2015,06,27,03,56,18.20
2015,06,27,03,57,18.20
2015,06,27,03,58,18.20
2015,06,27,03,59,18.20
2015,06,27,04,00,18.10
2015,06,27,04,01,18.10
2015,06,27,04,02,18.10
2015,06,27,04,03,18.10
2015,06,27,04,04,18.10
2015,06,27,04,05,18.10
2015,06,27,04,06,18.00
2015,06,27,04,07,18.00
2015,06,27,04,08,18.00
2015,06,27,04,09,17.90
2015,06,27,04,10,17.90
2015,06,27,04,11,17.90
2015,06,27,04,12,17.90
2015,06,27,04,13,17.90
2015,06,27,04,14,17.90
2015,06,27,04,15,17.80
2015,06,27,04,16,17.80
2015,06,27,04,17,17.80
2015,06,27,04,18,17.80
2015,06,27,04,19,17.80
2015,06,27,04,20,17.80
2015,06,27,04,21,17.80
2015,06,27,04,22,17.80
2015,06,27,04,23,17.70
2015,06,27,04,24,17.70
2015,06,27,04,25,17.70
2015,06,27,04,26,17.70
2015,06,27,04,27,17.70
2015,06,27,04,28,17.70
2015,06,27,04,29,17.70
2015,06,27,04,30,17.70
2015,06,27,04,31,17.60
2015,06,27,04,32,17.60
2015,06,27,04,33,17.60
2015,06,27,04,34,17.60
2015,06,27,04,35,17.60
2015,06,27,04,36,17.60
2015,06,27,04,37,17.60
2015,06,27,04,38,17.60
2015,06,27,04,39,17.60
2015,06,27,04,40,17.60
2015,06,27,04,41,17.60
2015,06,27,04,42,17.60
2015,06,27,04,43,17.60
2015,06,27,04,44,17.60
2015,06,27,04,45,17.60
2015,06,27,04,46,17.60
2015,06,27,04,47,17.60
2015,06,27,04,48,17.60
2015,06,27,04,49,17.60
2015,06,27,04,50,17.60
2015,06,27,04,51,17.60
2015,06,27,04,52,17.60
2015,06,27,04,53,17.60
2015,06,27,04,54,17.60
2015,06,27,04,55,17.60
2015,06,27,04,56,17.60
2015,06,27,04,57,17.50
2015,06,27,04,58,17.50
2015,06,27,04,59,17.50
2015,06,27,05,00,17.50
2015,06,27,05,01,17.50
2015,06,27,05,02,17.60
2015,06,27,05,03,17.60
2015,06,27,05,04,17.60
2015,06,27,05,05,17.60
2015,06,27,05,06,17.60
2015,06,27,05,07,17.60
2015,06,27,05,08,17.60
2015,06,27,05,09,17.60
2015,06,27,05,10,17.60
2015,06,27,05,11,17.60
2015,06,27,05,12,17.60
2015,06,27,05,13,17.60
2015,06,27,05,14,17.60
2015,06,27,05,15,17.60
2015,06,27,05,16,17.60
2015,06,27,05,17,17.60
2015,06,27,05,18,17.60
2015,06,27,05,19,17.60
2015,06,27,05,20,17.60
2015,06,27,05,21,17.60
2015,06,27,05,22,17.60
2015,06,27,05,23,17.60
2015,06,27,05,24,17.60
2015,06,27,05,25,17.60
2015,06,27,05,26,17.60
2015,06,27,05,27,17.60
2015,06,27,05,28,17.60
2015,06,27,05,29,17.60
2015,06,27,05,30,17.60
2015,06,27,05,31,17.60
2015,06,27,05,32,17.60
2015,06,27,05,33,17.60
2015,06,27,05,34,17.60
2015,06,27,05,35,17.60
2015,06,27,05,36,17.60
2015,06,27,05,37,17.60
2015,06,27,05,38,17.60
2015,06,27,05,39,17.60
2015,06,27,05,40,17.60
2015,06,27,05,41,17.60
2015,06,27,05,42,17.60
2015,06,27,05,43,17.60
2015,06,27,05,44,17.60
2015,06,27,05,45,17.60
2015,06,27,05,46,17.60
2015,06,27,05,47,17.60
2015,06,27,05,48,17.60
2015,06,27,05,49,17.50
2015,06,27,05,50,17.50
2015,06,27,05,51,17.50
2015,06,27,05,52,17.50
2015,06,27,05,53,17.50
2015,06,27,05,54,17.50
2015,06,27,05,55,17.50
2015,06,27,05,56,17.50
2015,06,27,05,57,17.50
2015,06,27,05,58,17.40
2015,06,27,05,59,17.40
2015,06,27,06,00,17.40
2015,06,27,06,01,17.40
2015,06,27,06,02,17.40
2015,06,27,06,03,17.40
2015,06,27,06,04,17.40
2015,06,27,06,05,17.40
2015,06,27,06,06,17.40
2015,06,27,08,13,21.50
2015,06,27,08,14,21.60
2015,06,27,08,15,21.70
2015,06,27,08,16,21.70
2015,06,27,08,17,21.80
2015,06,27,08,18,21.90
2015,06,27,08,19,22.00
2015,06,27,08,20,22.10
2015,06,27,08,21,22.10
2015,06,27,08,22,22.20
2015,06,27,08,23,22.30
2015,06,27,08,24,22.30
2015,06,27,08,25,22.40
2015,06,27,08,26,22.50
2015,06,27,08,27,22.60
2015,06,27,08,28,22.60
2015,06,27,08,29,22.70
2015,06,27,08,30,22.80
2015,06,27,08,31,22.80
2015,06,27,08,32,22.90
2015,06,27,08,33,22.90
2015,06,27,08,34,22.90
2015,06,27,08,35,22.90
2015,06,27,08,36,22.80
2015,06,27,08,37,22.80
2015,06,27,08,38,22.70
2015,06,27,08,39,22.60
2015,06,27,08,40,22.50
2015,06,27,08,41,22.50
2015,06,27,08,42,22.40
2015,06,27,08,43,22.40
2015,06,27,08,44,22.30
2015,06,27,08,45,22.30
2015,06,27,08,46,22.30
2015,06,27,08,47,22.30
2015,06,27,08,48,22.30
2015,06,27,08,49,22.20
2015,06,27,08,50,22.20
2015,06,27,08,51,22.20
2015,06,27,08,52,22.20
2015,06,27,08,53,22.20
2015,06,27,08,54,22.20
2015,06,27,08,55,22.20
2015,06,27,08,56,22.20
2015,06,27,08,57,22.20
2015,06,27,08,58,22.30
2015,06,27,08,59,22.30
2015,06,27,09,00,22.40
2015,06,27,09,01,22.50
2015,06,27,09,02,22.50
2015,06,27,09,03,22.60
2015,06,27,09,04,22.70
2015,06,27,09,05,22.70
2015,06,27,09,06,22.80
2015,06,27,09,07,22.80
2015,06,27,09,08,22.70
2015,06,27,09,09,22.60
2015,06,27,09,10,22.60
2015,06,27,09,11,22.50
2015,06,27,09,12,22.50
2015,06,27,09,13,22.40
2015,06,27,09,14,22.40
2015,06,27,09,15,22.40
2015,06,27,09,16,22.30
2015,06,27,09,17,22.30
2015,06,27,09,18,22.30
2015,06,27,09,19,22.30
2015,06,27,09,20,22.20
2015,06,27,09,21,22.20
2015,06,27,09,22,22.20
2015,06,27,09,23,22.20
2015,06,27,09,24,22.20
2015,06,27,09,25,22.20
2015,06,27,09,26,22.20
2015,06,27,09,27,22.30
2015,06,27,09,28,22.30
2015,06,27,09,29,22.30
2015,06,27,09,30,22.30
2015,06,27,09,31,22.20
2015,06,27,09,32,22.20
2015,06,27,09,33,22.00
2015,06,27,09,34,21.90
2015,06,27,09,35,21.80
2015,06,27,09,36,21.70
2015,06,27,09,37,21.60
2015,06,27,09,38,21.60
2015,06,27,09,39,21.50
2015,06,27,09,40,21.50
2015,06,27,09,41,21.30
2015,06,27,09,42,21.20
2015,06,27,09,43,21.10
2015,06,27,09,44,21.10
2015,06,27,09,45,20.90
2015,06,27,09,46,20.80
2015,06,27,09,47,20.70
2015,06,27,09,48,20.60
2015,06,27,09,49,20.60
2015,06,27,09,50,20.60
2015,06,27,09,51,20.60
2015,06,27,09,52,20.60
2015,06,27,09,53,20.60
2015,06,27,09,54,20.50
2015,06,27,09,55,20.50
2015,06,27,09,56,20.40
2015,06,27,09,57,20.40
2015,06,27,09,58,20.40
2015,06,27,09,59,20.40
2015,06,27,10,00,20.40
2015,06,27,10,01,20.40
2015,06,27,10,02,20.40
2015,06,27,10,03,20.50
2015,06,27,10,04,20.60
2015,06,27,10,05,20.60
2015,06,27,10,06,20.60
2015,06,27,10,07,20.70
2015,06,27,10,08,20.70
2015,06,27,10,09,20.80
2015,06,27,10,10,20.80
2015,06,27,10,11,20.80
2015,06,27,10,12,20.90
2015,06,27,10,13,21.00
2015,06,27,10,14,21.00
2015,06,27,10,15,21.10
2015,06,27,10,16,21.20
2015,06,27,10,17,21.30
2015,06,27,10,18,21.30
2015,06,27,10,19,21.40
2015,06,27,10,20,21.50
2015,06,27,10,21,21.60
2015,06,27,10,22,21.70
2015,06,27,10,23,21.80
2015,06,27,10,24,21.90
2015,06,27,10,25,21.90
2015,06,27,10,26,22.00
2015,06,27,10,27,22.10
2015,06,27,10,28,22.20
2015,06,27,10,29,22.30
2015,06,27,10,30,22.40
2015,06,27,10,31,22.60
2015,06,27,10,32,22.70
2015,06,27,10,33,22.70
2015,06,27,10,34,22.80
2015,06,27,10,35,22.80
2015,06,27,10,36,22.70
2015,06,27,10,37,22.60
2015,06,27,10,38,22.60
2015,06,27,10,39,22.60
2015,06,27,10,40,22.60
2015,06,27,10,41,22.70
2015,06,27,10,42,22.80
2015,06,27,10,43,22.80
2015,06,27,10,44,22.90
2015,06,27,10,45,23.00
2015,06,27,10,46,23.00
2015,06,27,10,47,23.10
2015,06,27,10,48,23.20
2015,06,27,10,49,23.20
2015,06,27,10,50,23.30
2015,06,27,10,51,23.30
2015,06,27,10,52,23.40
2015,06,27,10,53,23.50
2015,06,27,10,54,23.60
2015,06,27,10,55,23.70
2015,06,27,10,56,23.70
2015,06,27,10,57,23.80
2015,06,27,10,58,23.90
2015,06,27,10,59,24.00
2015,06,27,11,00,24.10
2015,06,27,11,01,24.20
2015,06,27,11,02,24.30
2015,06,27,11,03,24.40
2015,06,27,11,04,24.60
2015,06,27,11,05,24.70
2015,06,27,11,06,24.80
2015,06,27,11,07,24.80
2015,06,27,11,08,24.90
2015,06,27,11,09,24.80
2015,06,27,11,10,24.80
2015,06,27,11,11,24.70
2015,06,27,11,12,24.70
2015,06,27,11,13,24.70
2015,06,27,11,14,24.80
2015,06,27,11,15,24.80
2015,06,27,11,16,24.90
2015,06,27,11,17,25.00
2015,06,27,11,18,25.00
2015,06,27,11,19,25.20
2015,06,27,11,20,25.30
2015,06,27,11,21,25.40
2015,06,27,11,22,25.40
2015,06,27,11,23,25.40
2015,06,27,11,24,25.50
2015,06,27,11,25,25.60
2015,06,27,11,26,25.60
2015,06,27,11,27,25.70
2015,06,27,11,28,25.70
2015,06,27,11,29,25.70
2015,06,27,11,30,25.80
2015,06,27,11,31,25.70
2015,06,27,11,32,25.70
2015,06,27,11,33,25.50
2015,06,27,11,34,25.30
2015,06,27,11,35,25.30
2015,06,27,11,36,25.30
2015,06,27,11,37,25.40
2015,06,27,11,38,25.40
2015,06,27,11,39,25.40
2015,06,27,11,40,25.40
2015,06,27,11,41,25.30
2015,06,27,11,42,25.30
2015,06,27,11,43,25.30
2015,06,27,11,44,25.40
2015,06,27,11,45,25.50
2015,06,27,11,46,25.60
2015,06,27,11,47,25.70
2015,06,27,11,48,25.80
2015,06,27,11,49,25.80
2015,06,27,11,50,25.80
2015,06,27,11,51,25.80
2015,06,27,11,52,25.80
2015,06,27,11,53,25.80
2015,06,27,11,54,25.80
2015,06,27,11,55,25.90
2015,06,27,11,56,26.00
2015,06,27,11,57,26.00
2015,06,27,11,58,25.90
2015,06,27,11,59,26.00
2015,06,27,12,00,26.00
2015,06,27,12,01,25.90
2015,06,27,12,02,25.70
2015,06,27,12,03,25.50
2015,06,27,12,04,25.40
2015,06,27,12,05,25.20
2015,06,27,12,06,25.10
2015,06,27,12,07,24.90
2015,06,27,12,08,24.80
2015,06,27,12,09,24.80
2015,06,27,12,10,24.70
2015,06,27,12,11,24.70
2015,06,27,12,12,24.60
2015,06,27,12,13,24.60
2015,06,27,12,14,24.50
2015,06,27,12,15,24.40
2015,06,27,12,16,24.30
2015,06,27,12,17,24.20
2015,06,27,12,18,24.10
2015,06,27,12,19,24.10
2015,06,27,12,20,23.90
2015,06,27,12,21,23.90
2015,06,27,12,22,24.00
2015,06,27,12,23,24.00
2015,06,27,12,24,24.00
2015,06,27,12,25,24.10
2015,06,27,12,26,24.10
2015,06,27,12,27,24.00
2015,06,27,12,28,23.90
2015,06,27,12,29,23.80
2015,06,27,12,30,23.90
2015,06,27,12,31,23.90
2015,06,27,12,32,24.00
2015,06,27,12,33,24.10
2015,06,27,12,34,24.20
2015,06,27,12,35,24.40
2015,06,27,12,36,24.50
2015,06,27,12,37,24.50
2015,06,27,12,38,24.50
2015,06,27,12,39,24.60
2015,06,27,12,40,24.60
2015,06,27,12,41,24.70
2015,06,27,12,42,24.80
2015,06,27,12,43,24.90
2015,06,27,12,44,24.90
2015,06,27,12,45,25.00
2015,06,27,12,46,25.00
2015,06,27,12,47,24.80
2015,06,27,12,48,24.70
2015,06,27,12,49,24.60
2015,06,27,12,50,24.60
2015,06,27,12,51,24.60
2015,06,27,12,52,24.70
2015,06,27,12,53,24.70
2015,06,27,12,54,24.70
2015,06,27,12,55,24.70
2015,06,27,12,56,24.70
2015,06,27,12,57,24.70
2015,06,27,12,58,24.70
2015,06,27,12,59,24.80
2015,06,27,13,00,24.80
2015,06,27,13,01,24.80
2015,06,27,13,02,24.90
2015,06,27,13,03,24.90
2015,06,27,13,04,24.90
2015,06,27,13,05,24.90
2015,06,27,13,06,24.90
2015,06,27,13,07,24.90
2015,06,27,13,08,24.80
2015,06,27,13,09,24.70
2015,06,27,13,10,24.60
2015,06,27,13,11,24.60
2015,06,27,13,12,24.60
2015,06,27,13,13,24.70
2015,06,27,13,14,24.80
2015,06,27,13,15,24.90
2015,06,27,13,16,24.90
2015,06,27,13,17,25.00
2015,06,27,13,18,25.00
2015,06,27,13,19,25.10
2015,06,27,13,20,25.10
2015,06,27,13,21,25.10
2015,06,27,13,22,25.20
2015,06,27,13,23,25.20
2015,06,27,13,24,25.20
2015,06,27,13,25,25.20
2015,06,27,13,26,25.20
2015,06,27,13,27,25.10
2015,06,27,13,28,25.10
2015,06,27,13,29,25.10
2015,06,27,13,30,25.10
2015,06,27,13,31,25.10
2015,06,27,13,32,25.20
2015,06,27,13,33,25.20
2015,06,27,13,34,25.30
2015,06,27,13,35,25.40
2015,06,27,13,36,25.50
2015,06,27,13,37,25.60
2015,06,27,13,38,25.70
2015,06,27,13,39,25.70
2015,06,27,13,40,25.80
2015,06,27,13,41,25.70
2015,06,27,13,42,25.80
2015,06,27,13,43,25.80
2015,06,27,13,44,25.80
2015,06,27,13,45,25.90
2015,06,27,13,46,25.90
2015,06,27,13,47,25.90
2015,06,27,13,48,25.90
2015,06,27,13,49,25.90
2015,06,27,13,50,26.00
2015,06,27,13,51,26.00
2015,06,27,13,52,25.90
2015,06,27,13,53,25.90
2015,06,27,13,54,26.00
2015,06,27,13,55,26.00
2015,06,27,13,56,26.00
2015,06,27,13,57,26.00
2015,06,27,13,58,26.00
2015,06,27,13,59,26.10
2015,06,27,14,00,26.10
2015,06,27,14,01,26.00
2015,06,27,14,02,25.90
2015,06,27,14,03,25.90
2015,06,27,14,04,25.90
2015,06,27,14,05,25.90
2015,06,27,14,06,25.90
2015,06,27,14,07,25.90
2015,06,27,14,08,26.00
2015,06,27,14,09,26.00
2015,06,27,14,10,26.10
2015,06,27,14,11,26.20
2015,06,27,14,12,26.30
2015,06,27,14,13,26.40
2015,06,27,14,14,26.40
2015,06,27,14,15,26.40
2015,06,27,14,16,26.40
2015,06,27,14,17,26.30
2015,06,27,14,18,26.20
2015,06,27,14,19,26.20
2015,06,27,14,20,26.20
2015,06,27,14,21,26.10
2015,06,27,14,22,26.10
2015,06,27,14,23,26.10
2015,06,27,14,24,26.10
2015,06,27,14,25,26.20
2015,06,27,14,26,26.20
2015,06,27,14,27,26.30
2015,06,27,14,28,26.30
2015,06,27,14,29,26.40
2015,06,27,14,30,26.40
2015,06,27,14,31,26.40
2015,06,27,14,32,26.50
2015,06,27,14,33,26.50
2015,06,27,14,34,26.60
2015,06,27,14,35,26.60
2015,06,27,14,36,26.60
2015,06,27,14,37,26.70
2015,06,27,14,38,26.80
2015,06,27,14,39,26.90
2015,06,27,14,40,27.00
2015,06,27,14,41,27.00
2015,06,27,14,42,27.10
2015,06,27,14,43,27.20
2015,06,27,14,44,27.30
2015,06,27,14,45,27.30
2015,06,27,14,46,27.40
2015,06,27,14,47,27.50
2015,06,27,14,48,27.50
2015,06,27,14,49,27.50
2015,06,27,14,50,27.60
2015,06,27,14,51,27.70
2015,06,27,14,52,27.70
2015,06,27,14,53,27.80
2015,06,27,14,54,27.90
2015,06,27,14,55,28.00
2015,06,27,14,56,28.10
2015,06,27,14,57,28.30
2015,06,27,14,58,28.40
2015,06,27,14,59,28.60
2015,06,27,15,00,28.70
2015,06,27,15,01,28.70
2015,06,27,15,02,28.80
2015,06,27,15,03,28.70
2015,06,27,15,04,28.70
2015,06,27,15,05,28.60
2015,06,27,15,06,28.50
2015,06,27,15,07,28.50
2015,06,27,15,08,28.50
2015,06,27,15,09,28.50
2015,06,27,15,10,28.50
2015,06,27,15,11,28.40
2015,06,27,15,12,28.40
2015,06,27,15,13,28.30
2015,06,27,15,14,28.40
2015,06,27,15,15,28.40
2015,06,27,15,16,28.50
2015,06,27,15,17,28.60
2015,06,27,15,18,28.60
2015,06,27,15,19,28.70
2015,06,27,15,20,28.70
2015,06,27,15,21,28.70
2015,06,27,15,22,28.70
2015,06,27,15,23,28.70
2015,06,27,15,24,28.70
2015,06,27,15,25,28.70
2015,06,27,15,26,28.60
2015,06,27,15,27,28.60
2015,06,27,15,28,28.50
2015,06,27,15,29,28.50
2015,06,27,15,30,28.50
2015,06,27,15,31,28.50
2015,06,27,15,32,28.50
2015,06,27,15,33,28.50
2015,06,27,15,34,28.60
2015,06,27,15,35,28.60
2015,06,27,15,36,28.50
2015,06,27,15,37,28.40
2015,06,27,15,38,28.30
2015,06,27,15,39,28.30
2015,06,27,15,40,28.20
2015,06,27,15,41,28.20
2015,06,27,15,42,28.20
2015,06,27,15,43,28.10
2015,06,27,15,44,28.10
2015,06,27,15,45,28.10
2015,06,27,15,46,28.20
2015,06,27,15,47,28.30
2015,06,27,15,48,28.20
2015,06,27,15,49,28.20
2015,06,27,15,50,28.10
2015,06,27,15,51,28.10
2015,06,27,15,52,28.10
2015,06,27,15,53,28.20
2015,06,27,15,54,28.20
2015,06,27,15,55,28.20
2015,06,27,15,56,28.20
2015,06,27,15,57,28.20
2015,06,27,15,58,28.20
2015,06,27,15,59,28.20
2015,06,27,16,00,28.20
2015,06,27,16,01,28.20
2015,06,27,16,02,28.20
2015,06,27,16,03,28.30
2015,06,27,16,04,28.30
2015,06,27,16,05,28.30
2015,06,27,16,06,28.40
2015,06,27,16,07,28.40
2015,06,27,16,08,28.40
2015,06,27,16,09,28.40
2015,06,27,16,10,28.50
2015,06,27,16,11,28.50
2015,06,27,16,12,28.60
2015,06,27,16,13,28.60
2015,06,27,16,14,28.60
2015,06,27,16,15,28.70
2015,06,27,16,16,28.70
2015,06,27,16,17,28.70
2015,06,27,16,18,28.70
2015,06,27,16,19,28.70
2015,06,27,16,20,28.80
2015,06,27,16,21,28.80
2015,06,27,16,22,28.80
2015,06,27,16,23,28.90
2015,06,27,16,24,29.00
2015,06,27,16,25,29.10
2015,06,27,16,26,29.20
2015,06,27,16,27,29.30
2015,06,27,16,28,29.40
2015,06,27,16,29,29.50
2015,06,27,16,30,29.60
2015,06,27,16,31,29.70
2015,06,27,16,32,29.80
2015,06,27,16,33,29.80
2015,06,27,16,34,29.70
2015,06,27,16,35,29.70
2015,06,27,16,36,29.70
2015,06,27,16,37,29.70
2015,06,27,16,38,29.70
2015,06,27,16,39,29.70
2015,06,27,16,40,29.70
2015,06,27,16,41,29.70
2015,06,27,16,42,29.70
2015,06,27,16,43,29.70
2015,06,27,16,44,29.60
2015,06,27,16,45,29.60
2015,06,27,16,46,29.60
2015,06,27,16,47,29.60
2015,06,27,16,48,29.60
2015,06,27,16,49,29.60
2015,06,27,16,50,29.60
2015,06,27,16,51,29.50
2015,06,27,16,52,29.40
2015,06,27,16,53,29.30
2015,06,27,16,54,29.30
2015,06,27,16,55,29.30
2015,06,27,16,56,29.30
2015,06,27,16,57,29.30
2015,06,27,16,58,29.30
2015,06,27,16,59,29.30
2015,06,27,17,00,29.30
2015,06,27,17,01,29.30
2015,06,27,17,02,29.30
2015,06,27,17,03,29.30
2015,06,27,17,04,29.30
2015,06,27,17,05,29.30
2015,06,27,17,06,29.20
2015,06,27,17,07,29.20
2015,06,27,17,08,29.20
2015,06,27,17,09,29.20
2015,06,27,17,10,29.10
2015,06,27,17,11,29.10
2015,06,27,17,12,29.00
2015,06,27,17,13,28.90
2015,06,27,17,14,28.90
2015,06,27,17,15,28.80
2015,06,27,17,16,28.80
2015,06,27,17,17,28.80
2015,06,27,17,18,28.80
2015,06,27,17,19,28.80
2015,06,27,17,20,28.80
2015,06,27,17,21,28.80
2015,06,27,17,22,28.80
2015,06,27,17,23,28.70
2015,06,27,17,24,28.70
2015,06,27,17,25,28.70
2015,06,27,17,26,28.70
2015,06,27,17,27,28.70
2015,06,27,17,28,28.70
2015,06,27,17,29,28.70
2015,06,27,17,30,28.70
2015,06,27,17,31,28.80
2015,06,27,17,32,28.80
2015,06,27,17,33,28.80
2015,06,27,17,34,28.80
2015,06,27,17,35,28.90
2015,06,27,17,36,28.90
2015,06,27,17,37,29.00
2015,06,27,17,38,29.10
2015,06,27,17,39,29.10
2015,06,27,17,40,29.10
2015,06,27,17,41,29.10
2015,06,27,17,42,29.10
2015,06,27,17,43,29.00
2015,06,27,17,44,28.90
2015,06,27,17,45,28.90
2015,06,27,17,46,28.80
2015,06,27,17,47,28.70
2015,06,27,17,48,28.70
2015,06,27,17,49,28.60
2015,06,27,17,50,28.60
2015,06,27,17,51,28.50
2015,06,27,17,52,28.50
2015,06,27,17,53,28.40
2015,06,27,17,54,28.40
2015,06,27,17,55,28.30
2015,06,27,17,56,28.20
2015,06,27,17,57,28.10
2015,06,27,17,58,28.10
2015,06,27,17,59,28.00
2015,06,27,18,00,27.90
2015,06,27,18,01,27.80
2015,06,27,18,02,27.80
2015,06,27,18,03,27.70
2015,06,27,18,04,27.70
2015,06,27,18,05,27.60
2015,06,27,18,06,27.60
2015,06,27,18,07,27.60
2015,06,27,18,08,27.50
2015,06,27,18,09,27.50
2015,06,27,18,10,27.40
2015,06,27,18,11,27.30
2015,06,27,18,12,27.30
2015,06,27,18,13,27.30
2015,06,27,18,14,27.30
2015,06,27,18,15,27.30
2015,06,27,18,16,27.30
2015,06,27,18,17,27.30
2015,06,27,18,18,27.30
2015,06,27,18,19,27.30
2015,06,27,18,20,27.30
2015,06,27,18,21,27.30
2015,06,27,18,22,27.20
2015,06,27,18,23,27.20
2015,06,27,18,24,27.10
2015,06,27,18,25,27.10
2015,06,27,18,26,27.00
2015,06,27,18,27,26.90
2015,06,27,18,28,26.90
2015,06,27,18,29,26.80
2015,06,27,18,30,26.80
2015,06,27,18,31,26.70
2015,06,27,18,32,26.70
2015,06,27,18,33,26.60
2015,06,27,18,34,26.50
2015,06,27,18,35,26.30
2015,06,27,18,36,26.30
2015,06,27,18,37,26.10
2015,06,27,18,38,26.00
2015,06,27,18,39,25.90
2015,06,27,18,40,25.90
2015,06,27,18,41,25.90
2015,06,27,18,42,25.80
2015,06,27,18,43,25.70
2015,06,27,18,44,25.70
2015,06,27,18,45,25.70
2015,06,27,18,46,25.60
2015,06,27,18,47,25.60
2015,06,27,18,48,25.50
2015,06,27,18,49,25.50
2015,06,27,18,50,25.50
2015,06,27,18,51,25.50
2015,06,27,18,52,25.50
2015,06,27,18,53,25.60
2015,06,27,18,54,25.60
2015,06,27,18,55,25.70
2015,06,27,18,56,25.80
2015,06,27,18,57,25.80
2015,06,27,18,58,25.80
2015,06,27,18,59,25.90
2015,06,27,19,00,25.90
2015,06,27,19,01,25.90
2015,06,27,19,02,25.90
2015,06,27,19,03,25.90
2015,06,27,19,04,26.00
2015,06,27,19,05,26.00
2015,06,27,19,06,26.00
2015,06,27,19,07,26.10
2015,06,27,19,08,26.10
2015,06,27,19,09,26.10
2015,06,27,19,10,26.10
2015,06,27,19,11,26.20
2015,06,27,19,12,26.20
2015,06,27,19,13,26.20
2015,06,27,19,14,26.30
2015,06,27,19,15,26.30
2015,06,27,19,16,26.30
2015,06,27,19,17,26.30
2015,06,27,19,18,26.30
2015,06,27,19,19,26.20
2015,06,27,19,20,26.20
2015,06,27,19,21,26.20
2015,06,27,19,22,26.10
2015,06,27,19,23,26.10
2015,06,27,19,24,26.10
2015,06,27,19,25,26.00